Regional Weather Roundup
Issued by NWS Albany, NY

Home | Current Version | Previous Version | Text Only | Print | Product List | Glossary On
Versions: 1 2 3 4 5 6 7 8 9 10 11 12 13 14 15 16 17 18 19 20 21 22 23 24 25 26 27
000
ASUS41 KALY 222310
RWRALY

NEW YORK STATE HOURLY WEATHER ROUNDUP
NATIONAL WEATHER SERVICE ALBANY NY
700 PM EDT TUE AUG 22 2017

NOTE: "FAIR" INDICATES FEW OR NO CLOUDS BELOW 12,000 FEET WITH NO
SIGNIFICANT WEATHER AND/OR NO OBSTRUCTIONS TO VISIBILITY.

NYZ032-033-038>043-046>054-057>066-NYZ062>081-082-084-230000-
EAST


CITY           SKY/WX    TMP DP  RH WIND       PRES   REMARKS
ALBANY         CLOUDY    85  68  56 S14G22    29.68F
GLENS FALLS    LGT RAIN  77  70  79 W9G20     29.65F
POUGHKEEPSIE   CLOUDY    86  69  56 S8        29.74F HX  90
NEWBURGH       PTCLDY    82  73  74 SW14      29.78F
MONTGOMERY     MOCLDY    84  70  62 SW9       29.76F
WHITE PLAINS   CLOUDY    83  73  72 S9        29.79F
ISLIP          MOCLDY    79  76  90 S16G29    29.81F
NEW YORK CITY  MOCLDY    86  75  69 S14G22    29.78F HX  95
CENTRAL PARK   CLEAR     86  70  58 VRB7      29.81F HX  90
$$

NYZ005>009-017-018-044>046-055-056-230000-
CENTRAL


CITY           SKY/WX    TMP DP  RH WIND       PRES   REMARKS
FULTON         CLOUDY    72  69  90 S9        29.69R
SYRACUSE       CLOUDY    70  68  93 SW14G23   29.69F
ROME           RAIN      71  70  96 VRB3      29.72R FOG
ELMIRA         HVY RAIN  70  59  68 SW12      29.79S
BINGHAMTON     LGT RAIN  71  69  93 W6        29.80R
MONTICELLO     LGT RAIN  77  69  76 S8        29.82F
$$

NYZ026>034-041>043-087-230000-
NORTH


CITY           SKY/WX    TMP DP  RH WIND       PRES   REMARKS
WATERTOWN      CLOUDY    69  68  96 SW9       29.65S
FORT DRUM      NOT AVBL
OGDENSBURG     FAIR      69  65  89 SW14G22   29.60R
MASSENA        CLOUDY    73  70  90 SW16G24   29.59R
SARANAC LAKE   LGT RAIN  67  67 100 SW14      29.67R
PLATTSBURGH    CLOUDY    71  69  93 S3        29.61R
$$

NYZ001>004-010>016-019>021-085-230000-
WEST


CITY           SKY/WX    TMP DP  RH WIND       PRES   REMARKS
NIAGARA FALLS  RAIN      72  66  81 W14G26    29.70R
BUFFALO        CLOUDY    74  68  81 SW22G32   29.70S THUNDER
DUNKIRK        PTSUNNY   74  69  85 SW16G29   29.75R
JAMESTOWN      CLOUDY    70  66  87 W13G20    29.82R
WELLSVILLE     LGT RAIN  68  65  90 SW9       29.84S FOG
ROCHESTER      CLOUDY    74  69  85 SW9       29.68F
PENN YAN       LGT RAIN  70  65  84 S10       29.76S
$$

             KEY
       WCI = WIND CHILL INDEX
       VSB = VISIBILITY
       HX  = HEAT INDEX
$$




USA.gov is the U.S. government's official web portal to all federal, state and local government web resources and services.